FW5729 Weather Reports


time (UTC)temp
C
wind
direction
speed
KPH
gust
KPH
rain 1hr
cm
rain 24hr
cm
rain mn
cm
humidity
%
barometer
mb
20260906210050 35 0 3.2 9.7 0.00 0.00 0.00 43 1012.0
20260906204546 35 0 0.0 9.7 0.00 0.00 0.00 44 1012.2
20260906203038 34 217 0.0 6.4 0.00 0.00 0.00 49 1012.3
20260906201605 32 68 3.2 8.0 0.00 0.00 0.00 52 1012.5
20260906200038 33 0 0.0 1.6 0.00 0.00 0.00 51 1012.7
20260906194543 33 75 1.6 6.4 0.00 0.00 0.00 51 1012.8
20260906193039 33 219 1.6 9.7 0.00 0.00 0.00 51 1013.0
20260906191551 32 115 1.6 9.7 0.00 0.00 0.00 52 1013.1
20260906190045 32 53 6.4 12.9 0.00 0.00 0.00 52 1013.0
20260906184546 32 62 6.4 11.3 0.00 0.00 0.00 52 1013.3
20260906183042 32 67 1.6 9.7 0.00 0.00 0.00 53 1013.6
20260906181556 31 0 0.0 8.0 0.00 0.00 0.00 54 1013.8
20260906180038 31 61 3.2 9.7 0.00 0.00 0.00 58 1014.1
20260906173040 30 61 1.6 11.3 0.00 0.00 0.00 62 1014.5
20260906171540 30 40 4.8 11.3 0.00 0.00 0.00 63 1014.9
20260906170039 30 59 4.8 9.7 0.00 0.00 0.00 64 1015.0
20260906164539 29 70 3.2 9.7 0.00 0.00 0.00 67 1015.1
20260906163053 29 63 3.2 6.4 0.00 0.00 0.00 67 1015.1
20260906161539 29 63 4.8 12.9 0.00 0.00 0.00 68 1015.0
20260906160040 29 65 4.8 17.7 0.00 0.00 0.00 66 1015.0
20260906154539 28 60 4.8 11.3 0.00 0.00 0.00 69 1015.0
20260906153040 28 70 1.6 6.4 0.00 0.00 0.00 68 1014.8
20260906151545 28 0 0.0 0.0 0.00 0.00 0.00 68 1014.6
20260906150045 28 0 0.0 8.0 0.00 0.00 0.00 69 1014.5
20260906144540 27 0 0.0 1.6 0.00 0.00 0.00 73 1014.6
20260906143047 27 0 0.0 4.8 0.00 0.00 0.00 75 1014.5
20260906141548 27 0 0.0 1.6 0.00 0.00 0.00 75 1014.3
20260906140058 26 0 0.0 6.4 0.00 0.00 0.00 76 1014.2
20260906134539 27 0 0.0 0.0 0.00 0.00 0.00 75 1013.9
20260906133039 27 0 0.0 0.0 0.00 0.00 0.00 74 1013.6
20260906131549 26 0 0.0 0.0 0.00 0.00 0.00 79 1013.6
20260906130106 25 0 0.0 0.0 0.00 0.00 0.00 78 1013.3
20260906124542 26 0 0.0 0.0 0.00 0.00 0.00 77 1013.3
20260906123040 25 0 0.0 0.0 0.00 0.00 0.00 78 1013.2
20260906121539 25 0 0.0 0.0 0.00 0.00 0.00 79 1012.9
20260906120042 25 0 0.0 0.0 0.00 0.00 0.00 79 1012.7
20260906114545 25 0 0.0 0.0 0.00 0.00 0.00 78 1012.5
20260906113038 25 0 0.0 0.0 0.00 0.00 0.00 78 1012.4
20260906111539 25 0 0.0 0.0 0.00 0.00 0.00 79 1012.1
20260906110043 25 0 0.0 0.0 0.00 0.00 0.00 79 1011.9
20260906104540 25 0 0.0 0.0 0.00 0.00 0.00 79 1011.6
20260906103039 25 0 0.0 0.0 0.00 0.00 0.00 79 1011.8
20260906101538 25 0 0.0 0.0 0.00 0.00 0.00 78 1011.8
20260906100042 25 0 0.0 0.0 0.00 0.00 0.00 77 1011.7
20260906094548 26 0 0.0 0.0 0.00 0.00 0.00 76 1011.8
20260906093044 26 0 0.0 0.0 0.00 0.00 0.00 75 1011.9
20260906091547 26 0 0.0 0.0 0.00 0.00 0.00 75 1011.9
20260906090052 26 0 0.0 0.0 0.00 0.00 0.00 74 1011.8
20260906084539 26 0 0.0 0.0 0.00 0.00 0.00 72 1011.8
20260906083046 27 0 0.0 0.0 0.00 0.00 0.00 71 1011.7
20260906081543 27 70 0.0 4.8 0.00 0.00 0.00 70 1011.7
20260906080039 27 209 0.0 4.8 0.00 0.00 0.00 69 1011.8
20260906074552 27 176 1.6 8.0 0.00 0.00 0.00 68 1012.2
20260906073046 27 210 1.6 8.0 0.00 0.00 0.00 68 1012.4
20260906071539 27 192 0.0 3.2 0.00 0.00 0.00 70 1012.7
20260906070039 28 0 0.0 1.6 0.00 0.00 0.00 70 1012.8
20260906064542 28 0 1.6 4.8 0.00 0.00 0.00 69 1012.7
20260906063040 28 0 1.6 4.8 0.00 0.00 0.00 69 1012.9
20260906061539 28 0 0.0 6.4 0.00 0.00 0.00 69 1012.9
20260906060112 28 0 0.0 4.8 0.00 0.00 0.00 68 1013.1
20260906054540 28 0 0.0 1.6 0.00 0.00 0.00 67 1012.8
20260906053039 28 0 0.0 6.4 0.00 0.00 0.00 66 1012.8
20260906051537 28 212 0.0 6.4 0.00 0.00 0.00 65 1012.8
20260906050041 29 174 0.0 4.8 0.00 0.00 0.00 65 1012.9
20260906044543 29 202 0.0 4.8 0.00 0.00 0.00 64 1013.0
20260906043040 30 0 1.6 11.3 0.00 0.00 0.00 63 1012.8
20260906041546 30 212 1.6 4.8 0.00 0.00 0.00 61 1012.8
20260906040043 30 191 3.2 9.7 0.00 0.00 0.00 60 1012.8
20260906034546 30 57 3.2 8.0 0.00 0.00 0.00 59 1012.7
20260906033040 31 0 0.0 8.0 0.00 0.00 0.00 58 1012.7
20260906031606 31 0 0.0 6.4 0.00 0.00 0.00 58 1012.3
20260906030040 31 70 1.6 6.4 0.00 0.00 0.00 57 1012.1
20260906024543 31 110 1.6 11.3 0.00 0.00 0.00 56 1011.8
20260906023053 31 165 1.6 9.7 0.00 0.00 0.00 54 1011.4
20260906021540 32 50 1.6 4.8 0.00 0.00 0.00 52 1011.1
20260906020049 32 48 0.0 8.0 0.00 0.00 0.00 50 1010.8
20260906014539 32 72 0.0 6.4 0.00 0.00 0.00 48 1010.5
20260906013040 32 0 0.0 1.6 0.00 0.00 0.00 45 1010.4
20260906011541 33 0 0.0 3.2 0.00 0.00 0.00 43 1010.2
20260906010040 33 0 0.0 1.6 0.00 0.00 0.00 41 1010.2
20260906004547 33 0 0.0 4.8 0.00 0.00 0.00 40 1010.2
20260906003048 34 0 0.0 3.2 0.00 0.00 0.00 39 1010.0
20260906001544 34 0 1.6 6.4 0.00 0.00 0.00 38 1010.1
20260906000039 35 49 3.2 6.4 0.00 0.00 0.00 37 1010.3